Back to catalog

STARLINK-36376

AliveCommunicationsSSO
NORAD 67590·PAYLOAD·🇺🇸 United States

Launched Jan 29, 2026 from Vandenberg Space Force Base

Loading…

Next Passes (next 24 hours)

TLE

FreshSource: CelesTrak SupGP

Epoch: Sep 14, 2026, 14:25 UTC

1 67590C 26018B   26257.60118056  .00084461  00000+0  26222-2 0  2578
2 67590  97.2853 321.1283 0000887  93.2263 332.7710 15.33393257    16

Track STARLINK-36376 in real time with AllMySat

Download on the App Store